Tracking 35274 objects as of 12-Sep-2026
HD Live streaming from Space Station
objects crossing your sky now

FENGYUN 1C DEB


10-day predictions


NORAD ID: 33670
Int'l Code: 1999-025DFF
Launch date: May 10, 1999
Source: People's Republic of China (PRC)
Launch site: Taiyaun Space Center, China (TSC)

Note: This is SATELLITE DEBRIS
Your satellite tracking list
Your tracking list is empty




NASA's NSSDC Master Catalog

Two Line Element Set (TLE):
1 33670U 99025DFF 14098.12883889  .00339511  00000-0  84242-2 0  9997
2 33670 099.1023 061.7210 0075076 129.7261 291.7189 15.36231903342969
Source of the keplerian elements: AFSPC